Skip Page Navigation
NASA JPL Caltech
NASA Logo - Jet Propulsion Laboratory + View the NASA Portal
+ Near-Earth Object (NEO) Program
Search JPL
JPL Home Earth Solar System Stars & Galaxies Technology
JPL Solar System Dynamics
BODIES ORBITS EPHEMERIDES TOOLS PHYSICAL DATA DISCOVERY FAQ SITE MAP
JPL Small-Body Database Browser
Search: [ help ]  
11168 (1998 FO15)
Classification: Main-belt Asteroid          SPK-ID: 2011168
Ephemeris | Orbit Diagram | Orbital Elements | Physical Parameters | Discovery Circumstances | Close-Approach Data ]

[ show orbit diagram ]
Orbital Elements at Epoch 2457400.5 (2016-Jan-13.0) TDB
Reference: JPL 16 (heliocentric ecliptic J2000)
 Element Value Uncertainty (1-sigma)   Units 
e .115843960075917 4.8599e-08  
a 2.422172143999153 1.2808e-08 au
q 2.141578130852717 1.2083e-07 au
i 2.441942352602228 5.2702e-06 deg
node 358.7477414415596 0.00010616 deg
peri 147.1954039636319 0.00010824 deg
M 292.5141864504443 2.2445e-05 deg
tp 2457658.616591625438
(2016-Sep-27.11659163)
8.6425e-05 JED
period 1376.911206929793
3.77
1.0921e-05
2.99e-08
d
yr
n .2614547678805812 2.0737e-09 deg/d
Q 2.702766157145589 1.4291e-08 au
  Orbit Determination Parameters
   # obs. used (total)      1242  
   data-arc span      23392 days (64.04 yr)  
   first obs. used      1951-11-30  
   last obs. used      2015-12-16  
   planetary ephem.      DE431  
   SB-pert. ephem.      SB431-BIG16  
   condition code      0  
   fit RMS      .51616  
   data source      ORB  
   producer      Otto Matic  
   solution date      2016-Jan-04 13:16:48  

Additional Information
 Earth MOID = 1.15398 au 
 Jupiter MOID = 2.30237 au 
 T_jup = 3.502 
[ show covariance matrix ]

Ephemeris | Orbit Diagram | Orbital Elements | Physical Parameters | Discovery Circumstances | Close-Approach Data ]

Physical Parameter Table
Parameter Symbol Value Units Sigma Reference Notes
absolute magnitude H 14.4 mag n/a MPO358739  

11168 (1998 FO15)          Discovered 1998-Mar-21 by Ueda, S., Kaneda, H. at Kushiro
Reference: 19990728/Numbers.arcLast Updated: 2004-04-19

[ show close-approach data ]
Alternate Designations
 1998 FO15 = 1983 EZ1 
Ephemeris | Orbit Diagram | Orbital Elements | Physical Parameters | Discovery Circumstances | Close-Approach Data ]
ABOUT SSD CREDITS/AWARDS PRIVACY/COPYRIGHT GLOSSARY LINKS
FirstGov 2016-Feb-06 18:31 UT
(server date/time)  
NASA Home Page
Site Manager:   Ryan S. Park
Webmaster  Alan B. Chamberlin